Flag for U.S.A. Weather past 2 weeks in Orlando, Florida, U.S.A.

Now
82 °F

Clear.


Feels Like: 89 °F
Forecast: 77 / 91 °F
Wind: 6 mph from East

Location: Orlando Executive Airport

Current Time: Sep 1, 2015 at 10:58:32 PM

Latest Report: Sep 1, 2015 at 9:53 PM


Visibility: 10 mi

Pressure: 30.08 "Hg

Humidity: 82%

Dew point: 76 °F

Location of OrlandoLocation

Historic Weather in Orlando — Graph

°F

Orlando temperature yesterday

Maximum temperature yesterday: 89 °F (at 2:53 PM)
Minimum temperature yesterday: 75 °F (at 3:53 AM)
Average temperature yesterday: 80 °F

Past Weeks' High & Low Weather Summary

 TemperatureHumidityPressure
High96 °F (Aug 25, 5:53 PM)100% (Aug 18, 2:53 AM)30.12 "Hg (Aug 18, 2:53 AM)
Low73 °F (Aug 27, 6:53 AM)43% (Aug 25, 5:53 PM)29.87 "Hg (Aug 25, 6:53 PM)
Average82 °F84%30.00 "Hg
* Reported Aug 17 8:53 PM — Sep 1 8:53 PM, Orlando, Weather by CustomWeather, © 2015

Note: Actual official high and low records may vary slightly from our data, if they occured in-between our weather recording intervals... More about our weather records

Advertising

Orlando weather history for previous 24 hours

 ConditionsComfort  
Time TempWeatherWind HumidityBarometerVisibility
8:53 PM
Tue, Sep 1
82 °FPassing clouds.3 mph82%30.07 "Hg10 mi
7:53 PM85 °FSunny.5 mph72%30.06 "Hg10 mi
6:53 PM86 °FPassing clouds.7 mph70%30.05 "Hg10 mi
4:53 PM91 °FSunny.7 mph57%30.04 "Hg10 mi
3:53 PM90 °FPassing clouds.5 mph61%30.06 "Hg10 mi
2:53 PM90 °FSunny.8 mph63%30.07 "Hg10 mi
1:53 PM90 °FSunny.7 mph63%30.08 "Hg10 mi
12:53 PM89 °FPassing clouds.10 mph68%30.10 "Hg10 mi
11:53 AM87 °FPassing clouds.9 mph72%30.10 "Hg10 mi
10:53 AM85 °FSunny.6 mph77%30.10 "Hg10 mi
9:53 AM82 °FPassing clouds.5 mph91%30.11 "Hg10 mi
8:53 AM78 °FScattered clouds.6 mph100%30.10 "Hg10 mi
8:02 AM76 °FFog.6 mph100%30.09 "Hg1 mi
6:53 AM75 °FClear.3 mph100%30.06 "Hg8 mi
5:53 AM76 °FClear.5 mph100%30.05 "Hg8 mi
4:53 AM76 °FPassing clouds.No wind100%30.03 "Hg10 mi
3:53 AM77 °FPassing clouds.No wind100%30.04 "Hg10 mi
2:53 AM78 °FClear.5 mph100%30.05 "Hg10 mi
1:53 AM77 °FClear.5 mph100%30.06 "Hg10 mi
12:53 AM77 °FClear.3 mph100%30.07 "Hg10 mi
10:53 PM
Mon, Aug 31
76 °FClear.No wind100%30.08 "Hg10 mi
Weather by CustomWeather, © 2015

See weather overviewHow to use our weather pages